Location: Newark
(60.0000°N, 100.0000°E)
Time: 00:02:29
(UTC+00:00)

N. Korean satellite - Pass Details

Date: 26 November 2019
Orbit: 455 x 507 km, 97.2° (Epoch: 14 December)

Event Time Altitude Azimuth Distance (km) Brightness Sun altitude
Rises 21:56:31 0° 27° (NNE) 2,613 10.7 -26.9°
Reaches altitude 10° 21:59:44 10° 57° (ENE) 1,712 10.1 -26.5°
Maximum altitude 22:01:21 12° 84° (E) 1,556 10.1 -26.3°
Drops below altitude 10° 22:02:57 10° 110° (ESE) 1,695 10.2 -26.1°
Sets 22:06:06 0° 141° (SE) 2,557 10.7 -25.7°
